• In Österreich
  • Länderverzeichnis
  • Für 7 Tage
  • Wassertemperatur
  • Satellitenkarten
  • Wetterkarte
  • News
  • Widgets
  • user-avatar
    Anmelden

    Stündliche Wetter La Massana

    Heute, 20 Oktober, Freitag

    Zeit Temperatur Niederschläge Wind Luftdruck Luftfeuchtigkeit
    00:00 +6°C° 0 mm 1 m/S 609 mmHg 90%
    01:00 +6°C° 0 mm 1 m/S 609 mmHg 89%
    02:00 +6°C° 0 mm 1 m/S 609 mmHg 89%
    03:00 +6°C° 0 mm 1 m/S 609 mmHg 88%
    04:00 +5°C° 0 mm 1 m/S 610 mmHg 87%
    05:00 +5°C° 0 mm 1 m/S 610 mmHg 87%
    06:00 +5°C° 0 mm 1 m/S 610 mmHg 86%
    07:00 +7°C° 0 mm 1 m/S 612 mmHg 81%
    08:00 +8°C° 0 mm 0 m/S 613 mmHg 75%
    09:00 +10°C° 0 mm 0 m/S 614 mmHg 69%
    10:00 +12°C° 0 mm 1 m/S 614 mmHg 67%
    11:00 +13°C° 0 mm 1 m/S 615 mmHg 64%
    12:00 +14°C° 0 mm 2 m/S 615 mmHg 61%
    13:00 +13°C° 0 mm 2 m/S 615 mmHg 63%
    14:00 +13°C° 0 mm 2 m/S 615 mmHg 65%
    15:00 +13°C° 0 mm 2 m/S 615 mmHg 67%
    16:00 +10°C° 0 mm 2 m/S 614 mmHg 74%
    17:00 +10°C° 0 mm 1 m/S 614 mmHg 82%
    18:00 +8°C° 0 mm 1 m/S 613 mmHg 89%
    19:00 +8°C° 0 mm 1 m/S 613 mmHg 89%
    20:00 +7°C° 0 mm 1 m/S 613 mmHg 88%
    21:00 +7°C° 0 mm 1 m/S 613 mmHg 88%
    22:00 +7°C° 0 mm 1 m/S 613 mmHg 86%
    23:00 +6°C° 0 mm 1 m/S 613 mmHg 84%

    Morgen, 21 Oktober, Samstag

    Zeit Temperatur Niederschläge Wind Luftdruck Luftfeuchtigkeit
    00:00 +6°C° 0 mm 1 m/S 613 mmHg 82%
    01:00 +6°C° 0 mm 1 m/S 613 mmHg 81%
    02:00 +6°C° 0 mm 1 m/S 612 mmHg 79%
    03:00 +6°C° 0 mm 1 m/S 612 mmHg 77%
    04:00 +6°C° 0 mm 1 m/S 612 mmHg 74%
    05:00 +6°C° 0 mm 1 m/S 613 mmHg 72%
    06:00 +6°C° 0 mm 1 m/S 613 mmHg 69%
    07:00 +8°C° 0 mm 1 m/S 614 mmHg 67%
    08:00 +9°C° 0 mm 1 m/S 615 mmHg 64%
    09:00 +11°C° 0 mm 1 m/S 616 mmHg 61%
    10:00 +11°C° 0 mm 1 m/S 616 mmHg 61%
    11:00 +12°C° 0 mm 2 m/S 617 mmHg 60%
    12:00 +13°C° 0 mm 2 m/S 617 mmHg 60%
    13:00 +12°C° 0,1 mm 2 m/S 616 mmHg 64%
    14:00 +10°C° 0,1 mm 2 m/S 616 mmHg 69%
    15:00 +10°C° 0,1 mm 2 m/S 616 mmHg 73%
    16:00 +9°C° 0,2 mm 1 m/S 616 mmHg 79%
    17:00 +8°C° 0,2 mm 1 m/S 615 mmHg 85%
    18:00 +7°C° 0,2 mm 1 m/S 615 mmHg 91%
    19:00 +7°C° 0,1 mm 1 m/S 615 mmHg 92%
    20:00 +6°C° 0,1 mm 1 m/S 616 mmHg 93%
    21:00 +5°C° 0,1 mm 2 m/S 616 mmHg 94%
    22:00 +6°C° 0,1 mm 1 m/S 616 mmHg 94%
    23:00 +5°C° 0,1 mm 1 m/S 616 mmHg 94%

    übermorgen, 22 Oktober, Sonntag

    Zeit Temperatur Niederschläge Wind Luftdruck Luftfeuchtigkeit
    00:00 +5°C° 0,1 mm 1 m/S 615 mmHg 95%
    01:00 +5°C° 0 mm 1 m/S 615 mmHg 94%
    02:00 +3°C° 0 mm 2 m/S 615 mmHg 94%
    03:00 +3°C° 0 mm 2 m/S 615 mmHg 94%
    04:00 +2°C° 0 mm 2 m/S 615 mmHg 93%
    05:00 +2°C° 0 mm 2 m/S 614 mmHg 92%
    06:00 +1°C° 0 mm 2 m/S 614 mmHg 91%
    07:00 +2°C° 0 mm 2 m/S 615 mmHg 83%
    08:00 +4°C° 0 mm 2 m/S 616 mmHg 76%
    09:00 +5°C° 0 mm 2 m/S 617 mmHg 69%
    10:00 +6°C° 0 mm 2 m/S 617 mmHg 64%
    11:00 +7°C° 0 mm 3 m/S 617 mmHg 59%
    12:00 +8°C° 0 mm 3 m/S 617 mmHg 54%
    13:00 +8°C° 0 mm 3 m/S 617 mmHg 55%
    14:00 +7°C° 0 mm 3 m/S 616 mmHg 55%
    15:00 +7°C° 0 mm 3 m/S 616 mmHg 56%
    16:00 +5°C° 0 mm 3 m/S 616 mmHg 63%
    17:00 +4°C° 0 mm 2 m/S 615 mmHg 70%
    18:00 +2°C° 0 mm 2 m/S 614 mmHg 77%
    19:00 +2°C° 0 mm 2 m/S 614 mmHg 74%
    20:00 +1°C° 0 mm 2 m/S 615 mmHg 72%
    21:00 +1°C° 0 mm 2 m/S 615 mmHg 69%
    22:00 +1°C° 0 mm 2 m/S 615 mmHg 70%
    23:00 +1°C° 0 mm 2 m/S 614 mmHg 71%

    23 Oktober, Montag

    Zeit Temperatur Niederschläge Wind Luftdruck Luftfeuchtigkeit
    00:00 -1°C° 0 mm 2 m/S 614 mmHg 72%
    01:00 -1°C° 0 mm 2 m/S 614 mmHg 72%
    02:00 -1°C° 0 mm 2 m/S 614 mmHg 72%
    03:00 -1°C° 0 mm 2 m/S 614 mmHg 73%
    04:00 -1°C° 0 mm 2 m/S 614 mmHg 72%
    05:00 -1°C° 0 mm 2 m/S 614 mmHg 71%
    06:00 -1°C° 0 mm 2 m/S 614 mmHg 70%
    07:00 +2°C° 0 mm 2 m/S 615 mmHg 62%
    08:00 +6°C° 0 mm 1 m/S 616 mmHg 53%
    09:00 +8°C° 0 mm 1 m/S 617 mmHg 45%
    10:00 +9°C° 0 mm 1 m/S 618 mmHg 44%
    11:00 +11°C° 0 mm 1 m/S 618 mmHg 42%
    12:00 +12°C° 0 mm 2 m/S 618 mmHg 40%
    13:00 +12°C° 0 mm 2 m/S 618 mmHg 43%
    14:00 +10°C° 0 mm 2 m/S 618 mmHg 45%
    15:00 +10°C° 0 mm 2 m/S 617 mmHg 48%
    16:00 +8°C° 0 mm 2 m/S 617 mmHg 56%
    17:00 +6°C° 0 mm 2 m/S 616 mmHg 64%
    18:00 +4°C° 0 mm 2 m/S 615 mmHg 72%
    19:00 +4°C° 0 mm 2 m/S 615 mmHg 69%
    20:00 +4°C° 0 mm 2 m/S 615 mmHg 66%
    21:00 +4°C° 0 mm 2 m/S 615 mmHg 62%
    22:00 +4°C° 0 mm 2 m/S 615 mmHg 59%
    23:00 +4°C° 0 mm 2 m/S 615 mmHg 56%

    24 Oktober, Dienstag

    Zeit Temperatur Niederschläge Wind Luftdruck Luftfeuchtigkeit
    00:00 +4°C° 0 mm 2 m/S 615 mmHg 53%
    01:00 +4°C° 0 mm 2 m/S 615 mmHg 51%
    02:00 +4°C° 0 mm 2 m/S 615 mmHg 49%
    03:00 +4°C° 0 mm 2 m/S 614 mmHg 48%
    04:00 +4°C° 0 mm 2 m/S 614 mmHg 48%
    05:00 +4°C° 0 mm 2 m/S 614 mmHg 48%
    06:00 +4°C° 0 mm 2 m/S 614 mmHg 48%
    07:00 +8°C° 0 mm 1 m/S 615 mmHg 46%
    08:00 +10°C° 0 mm 1 m/S 617 mmHg 44%
    09:00 +13°C° 0 mm 1 m/S 618 mmHg 41%
    10:00 +14°C° 0 mm 1 m/S 618 mmHg 40%
    11:00 +15°C° 0 mm 1 m/S 618 mmHg 38%
    12:00 +18°C° 0 mm 1 m/S 619 mmHg 37%
    13:00 +16°C° 0 mm 1 m/S 618 mmHg 39%
    14:00 +16°C° 0 mm 1 m/S 618 mmHg 41%
    15:00 +16°C° 0 mm 1 m/S 617 mmHg 43%
    16:00 +13°C° 0 mm 1 m/S 616 mmHg 50%
    17:00 +11°C° 0 mm 1 m/S 615 mmHg 58%
    18:00 +9°C° 0 mm 1 m/S 615 mmHg 65%
    19:00 +9°C° 0 mm 1 m/S 615 mmHg 63%
    20:00 +8°C° 0 mm 1 m/S 615 mmHg 62%
    21:00 +8°C° 0 mm 1 m/S 615 mmHg 60%
    22:00 +8°C° 0 mm 1 m/S 615 mmHg 58%
    23:00 +8°C° 0 mm 1 m/S 615 mmHg 56%

    25 Oktober, Mittwoch

    Zeit Temperatur Niederschläge Wind Luftdruck Luftfeuchtigkeit
    00:00 +8°C° 0 mm 1 m/S 615 mmHg 55%
    01:00 +8°C° 0 mm 1 m/S 615 mmHg 56%
    02:00 +8°C° 0 mm 1 m/S 615 mmHg 56%
    03:00 +7°C° 0 mm 1 m/S 615 mmHg 57%
    04:00 +7°C° 0 mm 1 m/S 615 mmHg 58%
    05:00 +7°C° 0 mm 1 m/S 615 mmHg 60%
    06:00 +7°C° 0 mm 1 m/S 615 mmHg 61%
    07:00 +9°C° 0 mm 1 m/S 616 mmHg 56%
    08:00 +12°C° 0 mm 1 m/S 617 mmHg 51%
    09:00 +14°C° 0 mm 2 m/S 618 mmHg 46%
    10:00 +15°C° 0 mm 2 m/S 618 mmHg 43%
    11:00 +16°C° 0 mm 2 m/S 619 mmHg 40%
    12:00 +17°C° 0 mm 2 m/S 619 mmHg 38%
    13:00 +17°C° 0 mm 2 m/S 619 mmHg 39%
    14:00 +16°C° 0 mm 2 m/S 618 mmHg 41%
    15:00 +16°C° 0 mm 2 m/S 618 mmHg 43%
    16:00 +14°C° 0 mm 2 m/S 617 mmHg 50%
    17:00 +10°C° 0 mm 2 m/S 616 mmHg 57%
    18:00 +9°C° 0 mm 1 m/S 616 mmHg 65%
    19:00 +9°C° 0 mm 1 m/S 616 mmHg 62%
    20:00 +8°C° 0 mm 1 m/S 616 mmHg 60%
    21:00 +8°C° 0 mm 1 m/S 616 mmHg 58%
    22:00 +7°C° 0 mm 2 m/S 616 mmHg 59%
    23:00 +7°C° 0 mm 2 m/S 616 mmHg 60%
    Mehr zeigen